Penn Yan, NY

9:03 AM EDT on May 28, 2017 (GMT -0400)
Penn Yan

Weather History for KPEO - January, 2014

Change the Weather History Date:

Friday, January 31, 2014

  Actual Average (KITH) Record (KITH)
Temperature  
Mean Temperature 30 °F -  
Max Temperature 36 °F 30 °F 57 °F (2016)
Min Temperature 23 °F 13 °F -15 °F (1948)
Degree Days  
Heating Degree Days 36    
Moisture  
Dew Point 14 °F    
Average Humidity 54    
Maximum Humidity 78    
Minimum Humidity 42    
Precipitation  
Precipitation 0.00 in - - ()
Sea Level Pressure  
Sea Level Pressure 30.06 in    
Wind  
Wind Speed 8 mph (SSW)    
Max Wind Speed 14 mph    
Max Gust Speed 25 mph    
Visibility 10 miles    
Events      
Averages and records for this station are not official NWS values.
T = Trace of Precipitation, MM = Missing Value Source: NWS Daily Summary

Daily Weather History Graph

Daily Weather History Graph

Search for Another Location

Airport or City:

Trip Planner

Search our weather history database for the weather conditions in past years. The results will help you decide how hot, cold, wet, or windy it might be!

Date:

Astronomy

Jan. 31, 2014 Rise Set
Actual Time 7:23 AM EST 5:20 PM EST
Civil Twilight 6:53 AM EST 5:50 PM EST
Nautical Twilight 6:19 AM EST 6:24 PM EST
Astronomical Twilight 5:46 AM EST 6:57 PM EST
Moon 7:29 AM EST (1/31) 6:45 PM EST (1/31)
Length of Visible Light 10h 56m
Length of Day
9h 56m
New Moon, 1% of the Moon is Illuminated
Jan 31
New Moon
Feb 6
First Quarter
Feb 14
Full
Feb 22
Last Quarter
Mar 1
New

Hourly Weather History & Observations

Time (EST) Temp. Windchill Dew Point Humidity Pressure Visibility Wind Dir Wind Speed Gust Speed Precip Events Conditions
12:53 AM 24.1 °F 12.0 °F 3.9 °F 42% 29.96 in 10.0 mi South 13.8 mph 25.3 mph N/A   Partly Cloudy
1:53 AM 24.1 °F 13.1 °F 3.9 °F 42% 29.96 in 10.0 mi South 11.5 mph - N/A   Overcast
2:53 AM 23.0 °F 12.4 °F 6.1 °F 48% 29.96 in 10.0 mi SSW 10.4 mph - N/A   Scattered Clouds
3:53 AM 23.0 °F 13.1 °F 6.1 °F 48% 29.95 in 10.0 mi SSW 9.2 mph - N/A   Mostly Cloudy
4:53 AM 24.1 °F 13.7 °F 6.1 °F 46% 29.95 in 10.0 mi SSW 10.4 mph - N/A   Overcast
5:53 AM 24.1 °F 15.2 °F 7.0 °F 48% 29.97 in 10.0 mi SSW 8.1 mph - N/A   Overcast
6:53 AM 25.0 °F 17.1 °F 9.0 °F 51% 29.99 in 10.0 mi SSW 6.9 mph - N/A   Overcast
7:53 AM 25.0 °F 19.3 °F 10.9 °F 55% 30.01 in 10.0 mi SW 4.6 mph - N/A   Overcast
8:53 AM 27.0 °F 16.7 °F 10.9 °F 51% 30.06 in 10.0 mi SSW 11.5 mph - N/A   Overcast
9:53 AM 28.0 °F 19.3 °F 10.9 °F 49% 30.06 in 10.0 mi SSW 9.2 mph - N/A   Overcast
10:53 AM 30.0 °F 21.7 °F 12.9 °F 49% 30.09 in 10.0 mi SSW 9.2 mph - N/A   Overcast
11:53 AM 32.0 °F 26.4 °F 15.1 °F 50% 30.08 in 10.0 mi SSW 5.8 mph - N/A   Overcast
12:53 PM 34.0 °F 26.6 °F 16.0 °F 48% 30.07 in 10.0 mi SSW 9.2 mph - N/A   Overcast
1:53 PM 35.1 °F 27.9 °F 19.0 °F 52% 30.05 in 10.0 mi WSW 9.2 mph - N/A   Overcast
2:53 PM 35.1 °F 32.2 °F 19.0 °F 52% 30.06 in 10.0 mi SSE 3.5 mph - N/A   Overcast
3:53 PM 36.0 °F 33.3 °F 19.0 °F 50% 30.09 in 10.0 mi West 3.5 mph - N/A   Overcast
4:53 PM 35.1 °F 32.2 °F 19.0 °F 52% 30.12 in 10.0 mi WNW 3.5 mph - N/A   Overcast
5:53 PM 34.0 °F - 19.0 °F 54% 30.14 in 10.0 mi Calm Calm - N/A   Overcast
7:53 PM 28.9 °F - 21.9 °F 75% 30.17 in 10.0 mi Calm Calm - N/A   Overcast
8:53 PM 28.9 °F - 21.0 °F 72% 30.18 in 10.0 mi Calm Calm - N/A   Unknown
9:54 PM 28.9 °F - 21.0 °F 72% 30.18 in 10.0 mi Calm Calm - N/A   Unknown
10:53 PM 27.0 °F - 21.0 °F 78% 30.20 in 10.0 mi Calm Calm - N/A   Overcast
11:53 PM 28.9 °F 22.8 °F 19.9 °F 69% 30.19 in 10.0 mi SSW 5.8 mph - N/A   Unknown